Price, UT

5:48 AM MST on January 18, 2018 (GMT -0700)
Carbon County

Weather History for KPUC - August, 2014

Change the Weather History Date:

Saturday, August 16, 2014

  Actual Average Record
Temperature  
Mean Temperature 76 °F -  
Max Temperature 91 °F 83 °F 98 °F (2007)
Min Temperature 60 °F 56 °F 46 °F (1987)
Cooling Degree Days 10    
Growing Degree Days 26 (Base 50)    
Moisture  
Dew Point 32 °F    
Average Humidity 22    
Maximum Humidity 42    
Minimum Humidity 10    
Precipitation  
Precipitation 0.00 in - - ()
Sea Level Pressure  
Sea Level Pressure 29.94 in    
Wind  
Wind Speed 6 mph (NW)    
Max Wind Speed 12 mph    
Max Gust Speed -    
Visibility 10 miles    
Events      
Averages and records for this station are not official NWS values.
T = Trace of Precipitation, MM = Missing Value Source: NWS Daily Summary

Daily Weather History Graph

Daily Weather History Graph

Search for Another Location

Airport or City:

Trip Planner

Search our weather history database for the weather conditions in past years. The results will help you decide how hot, cold, wet, or windy it might be!

Date:

Astronomy

Aug. 16, 2014 Rise Set
Actual Time 6:36 AM MDT 8:17 PM MDT
Civil Twilight 6:07 AM MDT 8:46 PM MDT
Nautical Twilight 5:32 AM MDT 9:20 PM MDT
Astronomical Twilight 4:55 AM MDT 9:57 PM MDT
Moon No Moon Rise 1:24 PM MDT (8/16)
Length of Visible Light 14h 38m
Length of Day
13h 41m
Waning Gibbous, 58% of the Moon is Illuminated
Aug 16
Waning Gibbous
Aug 17
Last Quarter
Aug 25
New
Sep 2
First Quarter
Sep 8
Full

Hourly Weather History & Observations

Time (MDT) Temp. Dew Point Humidity Pressure Visibility Wind Dir Wind Speed Gust Speed Precip Events Conditions
12:53 AM 66.0 °F 33.1 °F 29% 29.92 in 10.0 mi NNE 9.2 mph - N/A   Clear
1:53 AM 66.0 °F 33.1 °F 29% 29.92 in 10.0 mi East 4.6 mph - N/A   Clear
2:53 AM 62.1 °F 33.1 °F 34% 29.94 in 10.0 mi North 5.8 mph - N/A   Clear
3:53 AM 64.0 °F 33.1 °F 31% 29.93 in 10.0 mi East 3.5 mph - N/A   Clear
4:53 AM 61.0 °F 33.1 °F 35% 29.95 in 10.0 mi North 8.1 mph - N/A   Clear
5:53 AM 60.1 °F 34.0 °F 38% 29.97 in 10.0 mi North 6.9 mph - N/A   Mostly Cloudy
6:53 AM 61.0 °F 37.9 °F 42% 29.96 in 10.0 mi NNE 8.1 mph - N/A   Clear
7:53 AM 70.0 °F 35.1 °F 28% 29.96 in 10.0 mi Calm Calm - N/A   Clear
8:53 AM 72.0 °F 37.9 °F 29% 29.99 in 10.0 mi Calm Calm - N/A   Clear
9:53 AM 77.0 °F 37.9 °F 24% 29.99 in 10.0 mi SSW 4.6 mph - N/A   Clear
10:53 AM 80.1 °F 43.0 °F 27% 29.99 in 10.0 mi SSE 5.8 mph - N/A   Clear
11:53 AM 84.0 °F 39.9 °F 21% 29.97 in 10.0 mi South 8.1 mph - N/A   Clear
12:53 PM 88.0 °F 35.1 °F 15% 29.95 in 10.0 mi South 6.9 mph - N/A   Clear
1:53 PM 90.0 °F 30.0 °F 12% 29.92 in 10.0 mi WSW 6.9 mph - N/A   Clear
2:53 PM 89.1 °F 28.9 °F 12% 29.93 in 10.0 mi Variable 5.8 mph - N/A   Clear
3:53 PM 91.0 °F 28.9 °F 11% 29.89 in 10.0 mi Variable 4.6 mph - N/A   Clear
4:53 PM 91.0 °F 26.1 °F 10% 29.89 in 10.0 mi SSW 6.9 mph - N/A   Clear
5:53 PM 89.1 °F 25.0 °F 10% 29.89 in 10.0 mi Calm Calm - N/A   Clear
6:53 PM 90.0 °F 25.0 °F 10% 29.87 in 10.0 mi West 11.5 mph - N/A   Clear
7:53 PM 87.1 °F 23.0 °F 10% 29.84 in 10.0 mi WNW 9.2 mph - N/A   Clear
8:53 PM 81.0 °F 23.0 °F 12% 29.87 in 10.0 mi NW 6.9 mph - N/A   Clear
9:53 PM 75.9 °F 27.0 °F 16% 29.89 in 10.0 mi NNW 5.8 mph - N/A   Clear
10:53 PM 77.0 °F 28.4 °F 17% 30.19 in 10.0 mi West 3.5 mph - N/A   Clear
11:53 PM 73.9 °F 30.9 °F 21% 29.88 in 10.0 mi Calm Calm - N/A   Clear